DG4DAZ-6 Weather Reports


time (UTC)temp
C
wind
direction
speed
KPH
gust
KPH
rain 1hr
cm
rain 24hr
cm
rain mn
cm
humidity
%
barometer
mb
20260507101354 11 315 3.2 11.3 0.00 0.23 0.05 77 1014.5
20260507100354 10 278 4.8 9.7 0.00 0.23 0.05 80 1014.5
20260507095354 10 360 0.0 4.8 0.00 0.23 0.05 83 1014.4
20260507094356 10 5 1.6 4.8 0.00 0.23 0.05 85 1014.3
20260507093355 10 268 3.2 6.4 0.00 0.23 0.05 85 1014.3
20260507092355 8 360 0.0 6.4 0.00 0.23 0.05 83 1014.3
20260507091354 9 360 0.0 3.2 0.00 0.23 0.05 86 1014.1
20260507090355 9 360 1.6 11.3 0.00 0.23 0.05 86 1014.0
20260507085355 9 279 1.6 12.9 0.00 0.23 0.05 89 1013.9
20260507084354 8 86 0.0 14.5 0.00 0.23 0.05 93 1013.8
20260507083354 8 313 1.6 4.8 0.00 0.23 0.05 95 1013.9
20260507082356 8 360 0.0 3.2 0.00 0.23 0.05 95 1013.8
20260507081355 8 305 1.6 4.8 0.00 0.23 0.05 96 1013.7
20260507080354 8 296 1.6 6.4 0.00 0.23 0.05 97 1013.6
20260507075354 7 360 0.0 3.2 0.00 0.25 0.05 97 1013.5
20260507074356 8 360 1.6 4.8 0.00 0.25 0.05 97 1013.4
20260507073355 8 96 0.0 6.4 0.00 0.25 0.05 98 1013.3
20260507072354 8 276 0.0 4.8 0.00 0.25 0.05 98 1013.1
20260507071355 7 202 0.0 4.8 0.00 0.25 0.05 98 1013.1
20260507070354 7 43 1.6 4.8 0.00 0.25 0.05 98 1013.0
20260507065355 7 85 1.6 3.2 0.00 0.25 0.05 98 1012.9
20260507064354 7 69 0.0 4.8 0.00 0.25 0.05 98 1012.9
20260507063356 7 340 0.0 3.2 0.00 0.25 0.05 98 1012.8
20260507062355 6 360 0.0 3.2 0.00 0.25 0.05 98 1012.6
20260507061355 6 360 0.0 3.2 0.03 0.25 0.05 98 1012.5
20260507060356 6 360 0.0 3.2 0.03 0.25 0.05 98 1012.4
20260507055356 6 360 1.6 1.6 0.03 0.36 0.05 97 1012.4
20260507054355 6 360 1.6 8.0 0.03 0.36 0.05 98 1012.3
20260507053354 6 360 0.0 3.2 0.03 0.36 0.05 98 1012.2
20260507052354 6 360 0.0 4.8 0.03 0.36 0.05 98 1012.1
20260507051355 6 360 0.0 6.4 0.00 0.33 0.03 98 1012.0
20260507050354 6 360 0.0 4.8 0.00 0.33 0.03 98 1011.9
20260507045354 6 360 0.0 3.2 0.00 0.41 0.03 97 1011.7
20260507044355 6 360 1.6 4.8 0.00 0.41 0.03 98 1011.7
20260507043354 6 360 0.0 1.6 0.00 0.41 0.03 97 1011.6
20260507042356 6 360 1.6 4.8 0.00 0.41 0.03 97 1011.5
20260507041355 5 360 0.0 4.8 0.00 0.41 0.03 97 1011.4
20260507040354 5 360 0.0 1.6 0.00 0.41 0.03 97 1011.3
20260507035354 5 360 0.0 3.2 0.00 0.41 0.03 97 1011.2
20260507034355 6 360 0.0 1.6 0.00 0.41 0.03 97 1011.1
20260507033354 6 360 0.0 1.6 0.00 0.41 0.03 97 1011.1
20260507032355 6 360 0.0 3.2 0.00 0.41 0.03 98 1011.2
20260507031355 6 360 0.0 4.8 0.00 0.41 0.03 98 1011.0
20260507030354 6 360 0.0 3.2 0.00 0.41 0.03 98 1011.0
20260507025355 6 360 0.0 6.4 0.00 0.46 0.03 98 1010.9
20260507024354 6 360 0.0 3.2 0.00 0.46 0.03 98 1010.9
20260507023355 6 360 0.0 1.6 0.00 0.46 0.03 98 1010.9
20260507022355 6 360 0.0 3.2 0.00 0.46 0.03 98 1010.8
20260507021354 6 360 0.0 4.8 0.00 0.46 0.03 98 1010.8
20260507020355 6 360 0.0 3.2 0.00 0.46 0.03 98 1010.7
20260507015354 6 360 0.0 1.6 0.03 0.53 0.03 97 1010.6
20260507014354 6 360 0.0 1.6 0.03 0.53 0.03 97 1010.5
20260507013355 6 360 0.0 6.4 0.03 0.53 0.03 97 1010.5
20260507012354 6 360 0.0 3.2 0.03 0.53 0.03 97 1010.4
20260507011356 6 360 0.0 1.6 0.03 0.53 0.03 97 1010.3
20260507010355 6 360 0.0 3.2 0.03 0.53 0.03 97 1010.2
20260507005354 6 360 0.0 4.8 0.00 0.58 0.00 97 1010.2
20260507004354 6 360 0.0 3.2 0.00 0.58 0.00 97 1010.1
20260507003355 6 360 0.0 1.6 0.00 0.58 0.00 97 1010.1
20260507002354 6 360 0.0 1.6 0.00 0.58 0.00 97 1010.1
20260507001356 6 360 0.0 4.8 0.00 0.58 0.00 97 1010.0
20260507000357 6 360 1.6 4.8 0.00 0.58 0.00 97 1010.1
20260506235355 6 360 0.0 4.8 0.00 0.74 0.00 97 1010.0
20260506234354 6 360 0.0 3.2 0.00 0.74 0.00 97 1009.9
20260506233355 6 360 0.0 1.6 0.00 0.74 0.00 97 1009.9
20260506232354 6 360 0.0 1.6 0.00 0.74 0.00 97 1009.9
20260506231355 6 360 0.0 1.6 0.00 0.74 0.00 97 1009.9
20260506230355 6 360 0.0 1.6 0.00 0.74 0.00 97 1009.8
20260506225354 6 360 0.0 4.8 0.00 0.94 0.00 97 1009.7
20260506224355 6 360 0.0 1.6 0.00 0.94 0.00 97 1009.5
20260506223354 6 360 0.0 4.8 0.00 0.94 0.00 97 1009.4
20260506222354 6 360 0.0 6.4 0.03 0.94 0.00 97 1009.5
20260506221355 6 360 1.6 6.4 0.03 0.94 0.00 97 1009.5
20260506220356 6 360 0.0 1.6 0.03 0.94 0.00 97 1009.5
20260506215355 6 360 0.0 3.2 0.03 1.12 1.12 97 1009.3
20260506214355 6 360 0.0 1.6 0.03 1.12 1.12 97 1009.3
20260506213354 6 360 0.0 1.6 0.03 1.12 1.12 97 1009.3
20260506212354 6 360 0.0 3.2 0.00 1.09 1.09 97 1009.2
20260506211355 6 360 0.0 1.6 0.00 1.09 1.09 97 1009.1
20260506210354 6 360 0.0 1.6 0.00 1.09 1.09 97 1009.1
20260506205356 6 360 1.6 3.2 0.00 1.30 1.09 97 1009.1
20260506204355 6 360 1.6 4.8 0.00 1.30 1.09 97 1009.1
20260506203354 6 360 0.0 3.2 0.00 1.30 1.09 97 1009.0
20260506202354 6 360 0.0 4.8 0.00 1.30 1.09 97 1008.8
20260506201355 6 360 0.0 6.4 0.00 1.30 1.09 97 1008.8
20260506200355 6 360 0.0 1.6 0.00 1.30 1.09 97 1008.7
20260506195355 6 360 0.0 4.8 0.00 1.45 1.09 97 1008.6
20260506194354 6 360 1.6 4.8 0.00 1.45 1.09 97 1008.6
20260506193355 6 360 0.0 3.2 0.00 1.45 1.09 97 1008.4
20260506192354 6 360 1.6 6.4 0.00 1.45 1.09 97 1008.3
20260506191356 6 360 1.6 3.2 0.00 1.45 1.09 97 1008.1
20260506190356 6 360 0.0 4.8 0.00 1.45 1.09 97 1007.9
20260506185355 6 360 0.0 3.2 0.00 1.60 1.09 97 1007.8
20260506184355 6 360 0.0 1.6 0.00 1.60 1.09 97 1007.7
20260506183354 6 360 0.0 1.6 0.00 1.60 1.09 97 1007.6
20260506182356 6 360 0.0 1.6 0.00 1.60 1.09 97 1007.5
20260506181355 6 360 0.0 4.8 0.00 1.60 1.09 97 1007.6
20260506180355 6 360 0.0 1.6 0.00 1.60 1.09 97 1007.5
20260506175354 6 360 0.0 4.8 0.00 1.75 1.09 97 1007.3
20260506174355 6 360 0.0 1.6 0.00 1.75 1.09 97 1007.4
20260506173354 6 360 1.6 3.2 0.00 1.75 1.09 97 1007.2
20260506172354 7 360 0.0 1.6 0.00 1.75 1.09 97 1007.1
20260506171354 7 360 0.0 4.8 0.00 1.75 1.09 97 1007.0
20260506170355 7 360 0.0 8.0 0.00 1.75 1.09 97 1007.0
20260506165354 7 360 0.0 1.6 0.00 1.91 1.09 97 1007.0
20260506164354 7 360 0.0 1.6 0.03 1.91 1.09 97 1006.8
20260506163356 7 360 0.0 3.2 0.03 1.91 1.09 97 1006.8
20260506162355 7 360 0.0 3.2 0.03 1.91 1.09 97 1006.7
20260506161354 7 360 0.0 4.8 0.05 1.91 1.09 97 1006.7
20260506160355 7 263 1.6 3.2 0.05 1.91 1.09 97 1006.7
20260506155354 7 34 0.0 4.8 0.08 1.91 1.09 97 1006.6
20260506154355 7 360 1.6 3.2 0.05 1.88 1.07 97 1006.6
20260506153355 7 360 0.0 4.8 0.05 1.88 1.07 97 1006.6
20260506152354 7 360 0.0 1.6 0.05 1.88 1.07 97 1006.6
20260506151356 7 360 0.0 3.2 0.03 1.88 1.07 97 1006.4
20260506150355 7 360 0.0 6.4 0.05 1.88 1.07 97 1006.4
20260506145354 7 360 0.0 3.2 0.03 1.93 1.04 97 1006.3
20260506144354 7 360 1.6 6.4 0.03 1.93 1.04 97 1006.3
20260506143356 7 360 0.0 4.8 0.05 1.93 1.04 97 1006.3
20260506142355 7 360 0.0 3.2 0.05 1.93 1.04 97 1006.1
20260506141354 7 360 0.0 3.2 0.08 1.93 1.04 97 1006.1
20260506140356 7 360 1.6 4.8 0.05 1.91 1.02 97 1006.0
20260506135356 7 360 0.0 4.8 0.05 1.91 1.02 97 1006.1
20260506134355 7 360 0.0 3.2 0.08 1.91 1.02 97 1006.1
20260506133354 7 360 0.0 4.8 0.05 1.88 0.99 97 1006.1
20260506132355 7 360 1.6 4.8 0.05 1.88 0.99 97 1006.0
20260506131355 7 360 1.6 3.2 0.03 1.88 0.97 97 1006.0
20260506130354 8 360 0.0 3.2 0.03 1.88 0.97 97 1005.9
20260506125355 8 360 0.0 1.6 0.03 1.88 0.97 97 1005.8
20260506124355 8 360 0.0 3.2 0.00 1.85 0.94 97 1005.8
20260506123354 8 360 1.6 4.8 0.00 1.85 0.94 97 1005.7
20260506122355 8 360 0.0 1.6 0.00 1.85 0.94 97 1005.6
20260506121354 8 360 0.0 3.2 0.00 1.85 0.94 97 1005.5
20260506120354 8 360 0.0 3.2 0.00 1.85 0.94 97 1005.4
20260506115355 8 360 0.0 1.6 0.00 1.85 0.94 97 1005.3
20260506114356 8 360 1.6 3.2 0.00 1.85 0.94 97 1005.2
20260506113356 8 360 1.6 4.8 0.00 1.85 0.94 97 1005.3
20260506112355 8 360 0.0 4.8 0.00 1.85 0.94 97 1005.2
20260506111354 8 360 0.0 3.2 0.00 1.85 0.94 97 1005.1
20260506110355 8 360 0.0 1.6 0.00 1.85 0.94 97 1005.1
20260506105355 8 360 0.0 1.6 0.00 1.85 0.94 97 1005.2
20260506104354 8 360 3.2 6.4 0.00 1.85 0.94 97 1005.2
20260506103354 8 360 1.6 4.8 0.00 1.85 0.94 97 1005.1
20260506102355 8 360 0.0 3.2 0.00 1.85 0.94 97 1005.0